Regional Weather Roundup
Issued by NWS

Home | Current Version | Previous Version | Text Only | Print | Product List | Glossary On
Versions: 1 2 3 4 5 6 7 8 9 10 11 12 13 14 15 16 17 18 19 20 21 22 23 24 25 26 27 28 29 30 31 32 33 34 35 36 37 38 39 40 41 42 43 44 45 46 47 48 49 50
000
ASUS43 KDTX 302010
RWRMI
MICHIGAN HOURLY REGIONAL WEATHER ROUNDUP
NATIONAL WEATHER SERVICE DETROIT/PONTIAC MI
400 PM EDT MON MAY 30 2016

NOTE: "FAIR" INDICATES FEW OR NO CLOUDS BELOW 12,000 FEET WITH NO
SIGNIFICANT WEATHER AND/OR OBSTRUCTION TO VISIBILITY.

MIZ047>049-052>055-059>063-066>070-074>076-081>083-302100-
SOUTHEAST LOWER MICHIGAN

CITY           SKY/WX    TMP DP  RH WIND       PRES   REMARKS
ADRIAN         MOSUNNY   84  50  30 VRB7      29.99F
ALMA           MOSUNNY   78  54  44 W10       29.98F
ANN ARBOR      MOSUNNY   83  54  36 NW10      29.98F
BAD AXE        MOSUNNY   79  52  38 NW13      29.97F
CARO           PTSUNNY   83  54  37 NW12      29.95F
DETROIT CITY   PTSUNNY   83  52  34 W7G16     29.97F
DETROIT        MOSUNNY   84  54  35 NW3       29.97F
FLINT          MOSUNNY   85  54  34 W13       29.97F
GROSSE ILE     MOSUNNY   81  63  54 SE8       29.97S
HILLSDALE      MOSUNNY   81  42  25 NW9       30.00F
HOWELL         SUNNY     83  51  32 W10       29.98F

CITY           SKY/WX    TMP DP  RH WIND       PRES   REMARKS
JACKSON        MOSUNNY   82  55  39 CALM      29.99F
LAMBERTVILLE   MOSUNNY   84  52  32 CALM      29.98F
LANSING        MOSUNNY   82  56  40 NW8       29.99F
LAPEER         FAIR      80  51  35 W8        29.98F
MASON          MOSUNNY   80  54  40 W9        29.99F
MONROE         MOSUNNY   85  54  35 W6        29.96F
MT. CLEMENS    MOSUNNY   78  60  54 SE8       29.96F
PONTIAC        MOSUNNY   82  53  36 W13       29.97F
PORT HOPE        N/A     79  53  40 W9        29.95F
PORT HURON     MOSUNNY   81  57  44 NW8       29.97F
TRI CITIES     MOSUNNY   83  54  36 W13G18    29.96F
MIDLAND        FAIR      82  51  34 W12G22    29.95F
TROY           MOSUNNY   83  52  34 NW10G16   29.99F
SAGINAW HB     MOSUNNY   81  50  34 W16G22    29.95F
$$
MIZ043>046-050>051-056>058-064>065-071>073-077>080-302100-
SOUTHWEST LOWER MICHIGAN

CITY           SKY/WX    TMP DP  RH WIND       PRES   REMARKS
BATTLE CREEK   MOSUNNY   80  54  40 W12       30.00F
BENTON HARBOR  SUNNY     80  56  43 NW5       30.00F
BIG RAPIDS     MOSUNNY   79  48  33 NW14G21   29.99F
COLDWATER      MOSUNNY   82  52  35 NW6G18    30.00S
FREMONT        PTSUNNY   80  52  37 NW12G20   29.99F
HOLLAND        SUNNY     79  57  46 W8        30.02F
GRAND RAPIDS   MOSUNNY   83  53  35 W10       29.99F
IONIA          FAIR      80  51  36 NW8G17    29.98F
KALAMAZOO      MOSUNNY   83  53  35 NW10      30.00F
LUDINGTON      SUNNY     76  58  53 NW7       30.00F
MARSHALL       PTSUNNY   81  53  37 W9G20     29.99F
MOUNT PLEASANT MOSUNNY   81  52  36 W12G20    29.96F
MUSKEGON       MOSUNNY   77  55  46 W8        30.00F
SOUTH HAVEN    SUNNY     79  57  47 NW6       30.00F
$$
MIZ016>042-302100-
NORTHERN LOWER MICHIGAN

CITY           SKY/WX    TMP DP  RH WIND       PRES   REMARKS
ALPENA         SUNNY     79  46  31 W15G24    29.94S
BEAVER ISLAND  SUNNY     71  54  54 SW14      29.97S
BELLAIRE       SUNNY     73  50  43 NW9       30.00S
CADILLAC       SUNNY     77  44  30 NW13G18   30.00S
CHARLEVOIX     SUNNY     72  54  53 W13       30.02S
FRANKFORT      SUNNY     73  58  59 W6        30.01F
GAYLORD        MOSUNNY   74  46  36 NW12G20   29.99S
GRAYLING       MOSUNNY   77  48  35 NW12G17   29.99F
HARBOR SPRINGS SUNNY     69  56  63 W8        29.98S
HOUGHTON LAKE  SUNNY     77  45  32 NW15      29.98F
OSCODA         MOSUNNY   83  47  27 W13G29    29.93S
PELLSTON       SUNNY     75  53  46 W15       29.97R
ROGERS CITY    PTSUNNY   76  48  37 W14G22    29.95S
TRAVERSE CITY  MOSUNNY   78  46  32 NW14G23   29.98S
$$
MIZ007>008-015-302100-
EASTERN UPPER MICHIGAN

CITY           SKY/WX    TMP DP  RH WIND       PRES   REMARKS
KINROSS          N/A     70  54  56 N15G21    29.93R
MACKINAC ISLAN SUNNY     67  56  67 SW13G22   29.95R
NEWBERRY       MOSUNNY   73  48  41 W20G26    29.94S
S. S. MARIE    SUNNY     67  54  63 NW12      29.93S
MUNISING         N/A     68  49  50 N15       29.95S
$$
MIZ004>006-011>014-085-302100-
CENTRAL UPPER MICHIGAN

CITY           SKY/WX    TMP DP  RH WIND       PRES   REMARKS
MANISTIQUE     MOSUNNY   71  55  57 S9        29.94S
ESCANABA       PTSUNNY   79  45  29 W14G21    29.93F
MENOMINEE      PTSUNNY   78  48  34 VRB7      29.97S
SAWYER-GWINN   MOSUNNY   75  41  29 W22G28    29.96S
$$
MIZ001>003-009>011-084-302100-
WESTERN UPPER MICHIGAN

CITY           SKY/WX    TMP DP  RH WIND       PRES   REMARKS
IRON MOUNTAIN  MOSUNNY   78  45  30 NW10      29.96F
HOUGHTON       SUNNY     73  50  44 W21G31    29.94R
COPPER HARBOR    N/A     69  51  52 N23G33    29.91S
IRONWOOD       SUNNY     75  45  33 NW9       29.95S
$$

ABBREVIATIONS USED IN REMARKS
   TC - TEMPERATURE IN CELSIUS
  WCI - WIND CHILL INDEX
   HX - HEAT INDEX
  VSB - VISIBILITY





USA.gov is the U.S. government's official web portal to all federal, state and local government web resources and services.